AirNav   Air Wisconsin pilot careers
 
 517 users online  

A05 Dixie USFS Airport
Dixie, Idaho, USA

GOING TO DIXIE?


FAA INFORMATION EFFECTIVE 11 OCTOBER 2018

Location

FAA Identifier: A05
Lat/Long: 45-31-14.6660N / 115-31-03.4560W
45-31.244433N / 115-31.057600W
45.5207406 / -115.5176267
(estimated)
Elevation: 5148 ft. / 1569.1 m (surveyed)
Variation: 18E (1985)
From city: 3 miles SW of DIXIE, ID
Time zone: UTC -7 (UTC -8 during Standard Time)
Zip code: 83525

Airport Operations

Airport use: Open to the public
Activation date: 04/1940
Control tower: no
ARTCC: SEATTLE CENTER
FSS: BOISE FLIGHT SERVICE STATION
NOTAMs facility: BOI (NOTAM-D service available)
Attendance: UNATNDD
Wind indicator: yes
Segmented circle: no

Airport Communications

CTAF: 122.9

Airport Services

Airframe service: NONE
Powerplant service: NONE

Runway Information

Runway 18/36

Dimensions: 4500 x 100 ft. / 1372 x 30 m
Surface: turf, in fair condition
ONGOING RODENT DAMAGE MIDFIELD.
Runway edge markings: RY 18/36 THLDS MKD WITH BEAMS PAINTED WHITE.
RUNWAY 18  RUNWAY 36
Traffic pattern: leftleft
Obstructions: 60 ft. trees, 75 ft. from runway, 100 ft. right of centerline, 1:1 slope to clear550 ft. hill, 3500 ft. from runway, 6:1 slope to clear

Airport Ownership and Management from official FAA records

Ownership: Publicly-owned
Owner: U S FOREST SERVICE
FEDERAL BUILDING
MISSOULA, MT 59801
Phone 406-329-3511
Manager: NEZPERCE FOREST, AIR OFFICER
111 AIRPORT RD
GRANGEVILLE, ID 83530
Phone 208-983-9571

Airport Operational Statistics

Aircraft based on the field: 1
Helicopters: 1
    
Aircraft operations: avg 20/week *
95% transient general aviation
5% air taxi
* for 12-month period ending 27 September 2017

Additional Remarks

AIRSTRIP IS LOCATED IN HIGH TIMBER MOUNTAIN BASIN.
RECOMMEND LANDING RY 36; WHEN WIND CONDITIONS PERMIT.
RECOMMEND DEPARTURE ON RWY 18; MAKE RIGHT TURN DOWN CROOKED CREEK AFTER DEPARTURE.
NO WINTER MAINTENANCE.
NO TELEPHONE AVBL AT AIRPORT.

Instrument Procedures

There are no published instrument procedures at A05.

Some nearby airports with instrument procedures:

KGIC - Idaho County Airport (36 nm NW)
KMYL - Mc Call Municipal Airport (45 nm SW)
6S5 - Ravalli County Airport (73 nm NE)
KSMN - Lemhi County Airport (73 nm E)
KLWS - Lewiston-Nez Perce County Airport (81 nm NW)
 
Loc | Ops | Rwys | IFR | FBO | Links
Com | Nav | Svcs | Stats | Notes


 
Area around A05 (Dixie USFS Airport)
 
Road maps at: MapQuest Bing Google
 
Aerial photo
No photo
 
Sectional chart

 
Airport distance calculator
Flying to Dixie USFS Airport? Find the distance to fly.

From to A05

Sunrise and sunset
Times for 21-Oct-2018
 Local
(UTC-7)
 Zulu
(UTC)
Morning civil twilight06:3713:37
Sunrise07:0814:08
Sunset17:4600:46
Evening civil twilight18:1601:16

Current date and time
Zulu (UTC)  21-Oct-2018 11:55:10
Local (UTC-7)  21-Oct-2018 04:55:10
 
METAR
KGIC 
36nm NW 
211135Z AUTO 10003KT 10SM CLR 04/00 A3008 RMK AO1
KP69 
38nm N 
211052Z AUTO 34003KT 03/00 A3015 RMK AO1 SLP216 T00280000 $
KMYL 
45nm SW 
211051Z AUTO 00000KT 10SM CLR 00/M02 A3016 RMK AO2 SLP197 T00001017
TAF
KMYL 
45nm SW 
210520Z 2106/2206 VRB03KT P6SM SKC
NOTAMs
Click for the latest NOTAMs
NOTAMs are issued by the DoD/FAA and will open in a separate window not controlled by AirNav.

 

 
 

Would you like to see your business listed on this page?

 If your business provides an interesting product or service to pilots, flight crews, aircraft, or users of the Dixie USFS Airport, you should consider listing it here.  To start the listing process, click on the button below
 
Add a business
 

Other Pages about Dixie USFS Airport

www.flyidaho.org/...
 
Update a link
 
Copyright © AirNav, LLC. All rights reserved. Privacy Policy  Contact